Regional Weather Roundup
Issued by NWS

Home | Current Version | Previous Version | Graphics & Text | Print | Product List | Glossary On
Versions: 1 2 3 4 5 6 7 8 9 10 11 12 13 14 15 16 17 18 19 20 21 22 23 24 25 26 27 28 29 30 31 32 33 34 35 36 37 38 39 40 41 42 43 44 45 46 47 48 49 50
000
ASUS43 KLMK 030402
RWRKY
KENTUCKY REGIONAL WEATHER ROUNDUP
NATIONAL WEATHER SERVICE LOUISVILLE KY
1200 AM EDT THU SEP 03 2015

NOTE "FAIR" INDICATES FEW OR NO CLOUDS BELOW 12,000 FEET
WITH NO SIGNIFICANT WEATHER AND/OR OBSTRUCTIONS TO VISIBILITY.

KYZ001>023-026-027-061>063-070>075-030500-
WESTERN AND SOUTH CENTRAL KENTUCKY

CITY           SKY/WX    TMP DP  RH WIND       PRES   REMARKS
PADUCAH        CLEAR     71  68  90 CALM      30.01S
HENDERSON      CLEAR     70  66  88 CALM      30.01F
OWENSBORO      LGT RAIN  77  69  76 CALM      30.03S
HOPKINSVILLE   CLEAR     75  67  76 N3        30.03R
BOWLING GREEN  CLEAR     74  68  81 CALM      30.03S
GLASGOW        CLEAR     69  69 100 CALM      30.04S
$$

KYZ024-025-028>034-038-045-046-053-030500-
NORTH CENTRAL KENTUCKY

CITY           SKY/WX    TMP DP  RH WIND       PRES   REMARKS
LOUISVILLE/SDF CLEAR     79  70  74 SW3       30.02S
LOUISVILLE/LOU CLEAR     74  69  85 CALM      30.03S
FORT KNOX      CLEAR     69  67  92 CALM      30.03S
$$

KYZ035>037-039>044-047>052-055>060-089>105-030500-
NORTHEAST KENTUCKY

CITY           SKY/WX    TMP DP  RH WIND       PRES   REMARKS
LEXINGTON      CLEAR     72  66  81 NE3       30.06S
COVINGTON      PTCLDY    75  66  73 CALM      30.04F
FRANKFORT      CLEAR     71  67  87 CALM      30.04S
$$

KYZ054-064>069-076>088-106>120-030500-
SOUTHEAST KENTUCKY

CITY           SKY/WX    TMP DP  RH WIND       PRES   REMARKS
JACKSON        CLEAR     73  66  78 CALM      30.08S
LONDON         CLEAR     71  64  78 CALM      30.07S
SOMERSET       NOT AVBL
MIDDLESBORO    MOCLDY    68  67  94 CALM      30.08F
MONTICELLO     PTCLDY    66  66 100 CALM      30.09R FOG
$$



USA.gov is the U.S. government's official web portal to all federal, state and local government web resources and services.